Regional Weather Roundup
Issued by NWS

Home | Current Version | Previous Version | Text Only | Print | Product List | Glossary On
Versions: 1 2 3 4 5 6 7 8 9 10 11 12 13 14 15 16 17 18 19 20 21 22 23 24 25 26 27 28 29 30 31 32 33 34 35 36 37 38 39 40 41 42 43 44 45 46 47 48 49 50
000
ASUS45 KSLC 170810
RWRUT

UTAH REGIONAL WEATHER ROUNDUP
NATIONAL WEATHER SERVICE SALT LAKE CITY UT
100 AM MST MON FEB 17 2020

UTZ001>011-023>025-170900-

NORTHERN UTAH

CITY           SKY/WX    TMP DP  RH WIND       PRES   REMARKS
BRIGHAM CITY   MOCLDY    35  22  59 N5        30.11R WCI  31
HILL AFB       CLOUDY    35  25  67 N13       30.08R WCI  26
LOGAN          CLOUDY    36  23  59 NW9       30.09R WCI  29
OGDEN          CLOUDY    37  24  59 N9        30.08R WCI  30
SALT LAKE CITY CLOUDY    37  31  78 NW6       30.09R WCI  32
TOOELE VALLEY  LGT RAIN  34  34 100 NW14      30.13R WCI  24
WENDOVER       MOCLDY    41  25  53 N17G23    30.09R
HEBER CITY     FLURRIES  32  32 100 E3        30.02R
WEST JORDAN    CLOUDY    36  33  91 W24G30    30.09R WCI  24

$$

UTZ011>015-024>027-170900-

CENTRAL/NORTHEAST UTAH

CITY           SKY/WX    TMP DP  RH WIND       PRES   REMARKS
PROVO AIRPORT  LGT SNOW  34  32  93 NW16G28   30.10R FOG     WCI  23
MOAB/CANYONLAN PTCLDY    34  28  79 CALM      29.95R
DELTA          MOCLDY    34  32  93 CALM      30.07S
PRICE          PTCLDY    34  22  61 CALM      29.97R
ROOSEVELT      PTCLDY    36  27  69 SW21      29.95F WCI  24
DUCHESNE       SUNNY     34  27  75 W17G28    29.94S WCI  23
VERNAL         CLEAR     26  22  84 W6        29.95R WCI  19

$$

UTZ013>016-019>022-027-170900-

SOUTHERN UTAH

CITY           SKY/WX    TMP DP  RH WIND       PRES   REMARKS
BRYCE CANYON   MOCLDY    34  26  72 N10       30.05F WCI  26
CEDAR CITY     MOCLDY    36  29  75 SE6       30.03F WCI  31
MILFORD        PTCLDY    35  29  78 N5        30.05S WCI  31
ST GEORGE      CLOUDY    47  26  44 VRB3      29.99F
HANKSVILLE     CLOUDY    50  28  43 NW14      29.99R
BLANDING         N/A     40  26  58 CALM      30.04S

$$

REGIONAL REPORTS     COLORADO/ARIZONA

CITY           SKY/WX    TMP DP  RH WIND       PRES   REMARKS
CRAIG, CO      FLURRIES  31  25  78 SW3       29.96R
GRAND JUNCTION MOCLDY    35  25  66 S3        29.94S
RIFLE, CO      MOCLDY    32  25  75 E5        29.93S WCI  27
MONTROSE, CO   CLOUDY    38  29  70 NW5       29.97S WCI  34
CORTEZ, CO     CLOUDY    33  22  63 CALM      29.97S
COLORADO CITY    N/A     32  23  69 SE5       30.07S WCI  27
PAGE, AZ       MOCLDY    53  25  33 NW3       29.98S
GRAND CANYON   PTCLDY    24  18  77 CALM      30.08S
KINGMAN, AZ    PTCLDY    45  26  47 SE12      30.01F
FLAGSTAFF, AZ  CLEAR     29  24  82 SW3       30.08F

$$

REGIONAL REPORTS    NEVADA/IDAHO/WYOMING

CITY           SKY/WX    TMP DP  RH WIND       PRES   REMARKS
LAS VEGAS, NV  CLOUDY    58  28  32 W5        29.97S
ELY, NY        PTCLDY    26  23  88 CALM      30.12S
ELKO, NV       MOCLDY    35  26  69 NW8       30.14R WCI  29
POCATELLO, ID  CLEAR     27  22  81 SW13      30.06S WCI  16
BURLEY, ID     CLEAR     30  21  69 W13G24    30.08R WCI  20
EVANSTON, WY   LGT SNOW  23  15  71 NW18G29   30.02R WCI   9
ROCK SPRINGS,  CLOUDY    25  17  72 W23G31    29.94R WCI  10
KEMMERER, WY   CLEAR     21  16  79 W26       29.95S HAZE    WCI   4

$$




USA.gov is the U.S. government's official web portal to all federal, state and local government web resources and services.